Location: Ermatingen
(47.6706°N, 9.0857°E)
Time: 02:08:18
(UTC+00:00)

Cosmos 1428 Rocket - Pass Details

Date: 01 December 2021
Orbit: 949 x 987 km, 82.9° (Epoch: 17 January)

Event Time Altitude Azimuth Distance (km) Brightness Sun altitude
Rises 04:53:08 0° 142° (SE) 3,637 8.3 -19.2°
Reaches altitude 10° 04:56:16 10° 126° (SE) 2,689 7.8 -18.6°
Maximum altitude 05:00:35 20° 81° (E) 2,034 7.0 -17.9°
Drops below altitude 10° 05:04:54 10° 36° (NE) 2,688 7.1 -17.2°
Sets 05:08:01 0° 21° (NNE) 3,635 7.6 -16.7°
